Patterson, LA

9:36 PM CST on November 21, 2019 (GMT -0600)
Williams Memorial

Weather History for KPTN - September, 2019

Change the Weather History Date:

Thursday, September 26, 2019

  Actual Average Record
Temperature  
Mean Temperature 79 °F -  
Max Temperature 89 °F 82 °F 91 °F (1998)
Min Temperature 69 °F 64 °F 55 °F (2000)
Cooling Degree Days 14    
Growing Degree Days 29 (Base 50)    
Moisture  
Dew Point 70 °F    
Average Humidity 65    
Maximum Humidity 100    
Minimum Humidity 46    
Precipitation  
Precipitation 0.00 in - - ()
Sea Level Pressure  
Sea Level Pressure 29.94 in    
Wind  
Wind Speed 2 mph (ESE)    
Max Wind Speed 9 mph    
Max Gust Speed -    
Visibility 10 miles    
Events      
Averages and records for this station are not official NWS values.
T = Trace of Precipitation, MM = Missing Value Source: NWS Daily Summary

Daily Weather History Graph

Daily Weather History Graph

Search for Another Location

Airport or City:

Astronomy

Sep. 26, 2019 Rise Set
Actual Time 6:55 AM CDT 6:57 PM CDT
Civil Twilight 6:31 AM CDT 7:20 PM CDT
Nautical Twilight 6:04 AM CDT 7:48 PM CDT
Astronomical Twilight 5:36 AM CDT 8:16 PM CDT
Moon 4:21 AM CDT (9/26) 5:55 PM CDT (9/26)
Length of Visible Light 12h 48m
Length of Day
12h 01m
Waning Crescent, 6% of the Moon is Illuminated
Sep 26
Waning Crescent
Sep 28
New
Oct 5
First Quarter
Oct 13
Full
Oct 21
Last Quarter

Hourly Weather History & Observations

Time (CDT) Temp. Heat Index Dew Point Humidity Pressure Visibility Wind Dir Wind Speed Gust Speed Precip Events Conditions
12:56 AM - - - N/A% 29.94 in 10.0 mi Calm Calm - N/A   Clear
1:56 AM - - - N/A% 29.93 in 10.0 mi Calm Calm - N/A   Clear
2:56 AM - - - N/A% 29.91 in 9.0 mi Calm Calm - N/A   Clear
3:56 AM - - - N/A% 29.91 in 10.0 mi Calm Calm - N/A   Clear
4:56 AM - - - N/A% 29.92 in 7.0 mi Calm Calm - N/A   Clear
5:56 AM - - - N/A% 29.94 in 10.0 mi Calm Calm - N/A   Clear
6:56 AM 70.0 °F - - N/A% 29.96 in 8.0 mi Calm Calm - N/A   Clear
7:18 AM 69.8 °F - - N/A% 29.96 in 5.0 mi Calm Calm - N/A   Haze
7:56 AM 73.0 °F - - N/A% 29.97 in 10.0 mi ENE 3.5 mph - N/A   Clear
8:56 AM 79.0 °F - - N/A% 29.98 in 10.0 mi ENE 4.6 mph - N/A   Clear
9:56 AM 82.0 °F 86.7 °F 72.0 °F 71% 29.99 in 10.0 mi NNE 6.9 mph - N/A   Clear
10:50 AM 84.2 °F 89.6 °F 71.6 °F 66% 29.99 in 10.0 mi Variable 4.6 mph - N/A   Mostly Cloudy
10:56 AM 84.0 °F 89.6 °F 72.0 °F 67% 29.99 in 10.0 mi NNE 5.8 mph - N/A   Mostly Cloudy
11:15 AM 84.2 °F 89.6 °F 71.6 °F 66% 29.99 in 10.0 mi ESE 5.8 mph - N/A   Scattered Clouds
11:56 AM 87.1 °F 91.3 °F 69.1 °F 55% 29.99 in 10.0 mi SE 5.8 mph - N/A   Mostly Cloudy
12:56 PM 84.9 °F 88.2 °F 68.0 °F 57% 29.97 in 10.0 mi ESE 6.9 mph - N/A   Mostly Cloudy
1:56 PM 87.1 °F 90.6 °F 68.0 °F 53% 29.94 in 10.0 mi ENE 8.1 mph - N/A   Mostly Cloudy
2:56 PM 87.1 °F 90.6 °F 68.0 °F 53% 29.92 in 10.0 mi Variable 3.5 mph - N/A   Scattered Clouds
3:56 PM 89.1 °F 91.3 °F 66.0 °F 46% 29.89 in 10.0 mi SE 9.2 mph - N/A   Scattered Clouds
4:56 PM 88.0 °F 90.3 °F 66.0 °F 48% 29.88 in 10.0 mi South 8.1 mph - N/A   Clear
5:11 PM 87.8 °F 90.4 °F 66.2 °F 49% 29.88 in 10.0 mi SSE 8.1 mph - N/A   Clear
5:56 PM 86.0 °F 90.1 °F 69.1 °F 57% 29.88 in 10.0 mi SSE 8.1 mph - N/A   Clear
6:56 PM 81.0 °F 84.4 °F 70.0 °F 69% 29.89 in 10.0 mi SSE 4.6 mph - N/A   Clear
7:56 PM 75.0 °F - 71.1 °F 87% 29.91 in 10.0 mi South 3.5 mph - N/A   Clear
8:56 PM 75.0 °F - 73.0 °F 94% 29.92 in 10.0 mi SSE 3.5 mph - N/A   Clear
9:56 PM 73.9 °F - 73.9 °F 100% 29.93 in 10.0 mi Calm Calm - N/A   Clear
10:56 PM 73.0 °F - - N/A% 29.93 in 10.0 mi SSE 3.5 mph - N/A   Clear
11:56 PM - - - N/A% 29.92 in 10.0 mi Calm Calm - N/A   Clear